| time (UTC) | temp C | wind direction | speed KPH | gust KPH | rain 1hr cm | rain 24hr cm | rain mn cm | humidity % | barometer mb |
| 20260906000022 | 13 | 325 | 33.8 | 43.5 | 0.00 | 0.03 | 0.00 | 78 | 1013.1 |
| 20260905235018 | 13 | 353 | 33.8 | 48.3 | 0.00 | 0.03 | 0.00 | 79 | 1013.3 |
| 20260905234115 | 13 | 351 | 35.4 | 46.7 | 0.00 | 0.03 | 0.00 | 79 | 1013.3 |
| 20260905233111 | 13 | 341 | 38.6 | 53.1 | 0.00 | 0.03 | 0.00 | 78 | 1013.3 |
| 20260905232108 | 13 | 320 | 32.2 | 54.7 | 0.00 | 0.03 | 0.00 | 79 | 1013.4 |
| 20260905231106 | 13 | 330 | 35.4 | 54.7 | 0.00 | 0.03 | 0.00 | 80 | 1013.4 |
| 20260905225059 | 13 | 341 | 29.0 | 45.1 | 0.00 | 0.03 | 0.00 | 80 | 1014.1 |
| 20260905224054 | 13 | 338 | 30.6 | 45.1 | 0.00 | 0.03 | 0.00 | 81 | 1014.2 |
| 20260905223113 | 13 | 341 | 29.0 | 40.2 | 0.00 | 0.03 | 0.00 | 81 | 1014.2 |
| 20260905222047 | 13 | 348 | 25.7 | 37.0 | 0.00 | 0.03 | 0.00 | 82 | 1014.2 |
| 20260905221046 | 13 | 350 | 22.5 | 29.0 | 0.00 | 0.03 | 0.00 | 83 | 1014.5 |
| 20260905220041 | 13 | 343 | 24.1 | 33.8 | 0.00 | 0.03 | 0.00 | 83 | 1014.8 |
| 20260905215058 | 13 | 334 | 22.5 | 33.8 | 0.00 | 0.03 | 0.00 | 83 | 1015.1 |
| 20260905214034 | 13 | 333 | 20.9 | 30.6 | 0.00 | 0.03 | 0.00 | 84 | 1015.4 |
| 20260905213032 | 13 | 346 | 24.1 | 33.8 | 0.00 | 0.03 | 0.00 | 85 | 1015.5 |
| 20260905212028 | 12 | 358 | 22.5 | 33.8 | 0.00 | 0.03 | 0.00 | 86 | 1015.5 |
| 20260905211023 | 12 | 331 | 25.7 | 35.4 | 0.00 | 0.03 | 0.00 | 87 | 1015.8 |
| 20260905210019 | 12 | 349 | 22.5 | 35.4 | 0.00 | 0.03 | 0.00 | 88 | 1015.9 |
| 20260905205018 | 12 | 359 | 20.9 | 32.2 | 0.00 | 0.03 | 0.00 | 89 | 1015.9 |
| 20260905204112 | 12 | 3 | 24.1 | 35.4 | 0.00 | 0.03 | 0.00 | 91 | 1015.7 |
| 20260905203131 | 12 | 349 | 20.9 | 30.6 | 0.00 | 0.03 | 0.00 | 92 | 1015.8 |
| 20260905202105 | 12 | 358 | 17.7 | 24.1 | 0.00 | 0.03 | 0.00 | 94 | 1015.8 |
| 20260905201103 | 12 | 356 | 20.9 | 27.4 | 0.00 | 0.03 | 0.00 | 94 | 1015.8 |
| 20260905200120 | 12 | 342 | 19.3 | 25.7 | 0.00 | 0.03 | 0.00 | 95 | 1015.8 |
| 20260905195055 | 12 | 4 | 16.1 | 20.9 | 0.00 | 0.03 | 0.00 | 95 | 1016.0 |
| 20260905194051 | 12 | 347 | 19.3 | 27.4 | 0.00 | 0.03 | 0.00 | 96 | 1016.0 |
| 20260905193048 | 12 | 344 | 19.3 | 24.1 | 0.00 | 0.03 | 0.00 | 96 | 1016.0 |
| 20260905192045 | 12 | 339 | 16.1 | 22.5 | 0.00 | 0.03 | 0.00 | 96 | 1015.9 |
| 20260905191041 | 12 | 352 | 19.3 | 24.1 | 0.00 | 0.03 | 0.00 | 96 | 1015.9 |
| 20260905190039 | 12 | 3 | 17.7 | 27.4 | 0.00 | 0.03 | 0.00 | 97 | 1015.8 |
| 20260905185034 | 12 | 334 | 14.5 | 22.5 | 0.00 | 0.03 | 0.00 | 97 | 1015.8 |
| 20260905184030 | 12 | 334 | 14.5 | 20.9 | 0.00 | 0.03 | 0.00 | 97 | 1015.5 |
| 20260905183028 | 12 | 351 | 16.1 | 22.5 | 0.00 | 0.03 | 0.00 | 98 | 1015.4 |
| 20260905182045 | 12 | 351 | 14.5 | 24.1 | 0.00 | 0.03 | 0.00 | 98 | 1015.4 |
| 20260905181019 | 11 | 13 | 16.1 | 22.5 | 0.00 | 0.03 | 0.00 | 98 | 1015.4 |
| 20260905180018 | 11 | 360 | 16.1 | 22.5 | 0.00 | 0.03 | 0.00 | 98 | 1015.4 |
| 20260905175113 | 11 | 358 | 12.9 | 17.7 | 0.00 | 0.03 | 0.00 | 98 | 1015.5 |
| 20260905174109 | 11 | 353 | 11.3 | 17.7 | 0.00 | 0.03 | 0.00 | 98 | 1015.4 |
| 20260905173106 | 11 | 355 | 12.9 | 19.3 | 0.00 | 0.03 | 0.00 | 98 | 1015.5 |
| 20260905172122 | 11 | 0 | 12.9 | 17.7 | 0.00 | 0.03 | 0.00 | 98 | 1015.6 |
| 20260905171100 | 11 | 0 | 12.9 | 17.7 | 0.00 | 0.03 | 0.00 | 98 | 1015.6 |
| 20260905170056 | 11 | 0 | 11.3 | 17.7 | 0.00 | 0.03 | 0.00 | 98 | 1015.7 |
| 20260905165053 | 12 | 344 | 14.5 | 17.7 | 0.00 | 0.03 | 0.00 | 98 | 1015.6 |
| 20260905164048 | 11 | 355 | 16.1 | 20.9 | 0.00 | 0.03 | 0.00 | 98 | 1015.5 |
| 20260905163044 | 11 | 336 | 16.1 | 24.1 | 0.00 | 0.03 | 0.00 | 98 | 1015.5 |
| 20260905162042 | 11 | 331 | 14.5 | 22.5 | 0.00 | 0.03 | 0.00 | 98 | 1015.7 |
| 20260905161037 | 11 | 349 | 9.7 | 12.9 | 0.00 | 0.03 | 0.00 | 98 | 1015.6 |
| 20260905160036 | 11 | 345 | 12.9 | 19.3 | 0.00 | 0.03 | 0.00 | 98 | 1015.5 |
| 20260905155031 | 11 | 355 | 12.9 | 17.7 | 0.00 | 0.03 | 0.00 | 98 | 1015.4 |
| 20260905154027 | 11 | 334 | 9.7 | 12.9 | 0.00 | 0.03 | 0.00 | 98 | 1015.4 |
| 20260905153024 | 11 | 4 | 11.3 | 16.1 | 0.00 | 0.03 | 0.00 | 97 | 1015.3 |
| 20260905152020 | 11 | 345 | 11.3 | 14.5 | 0.00 | 0.03 | 0.00 | 97 | 1015.5 |
| 20260905151039 | 11 | 0 | 9.7 | 14.5 | 0.00 | 0.03 | 0.00 | 97 | 1015.8 |
| 20260905150113 | 11 | 351 | 12.9 | 16.1 | 0.00 | 0.03 | 0.00 | 97 | 1015.9 |
| 20260905145112 | 11 | 346 | 11.3 | 16.1 | 0.00 | 0.03 | 0.00 | 97 | 1016.0 |
| 20260905144107 | 11 | 340 | 9.7 | 14.5 | 0.00 | 0.03 | 0.00 | 97 | 1016.0 |
| 20260905143104 | 11 | 315 | 11.3 | 17.7 | 0.00 | 0.03 | 0.00 | 97 | 1016.2 |
| 20260905142059 | 12 | 345 | 14.5 | 17.7 | 0.00 | 0.03 | 0.00 | 97 | 1016.4 |
| 20260905141056 | 12 | 315 | 16.1 | 20.9 | 0.00 | 0.03 | 0.00 | 96 | 1016.6 |
| 20260905140052 | 12 | 327 | 11.3 | 20.9 | 0.00 | 0.03 | 0.00 | 96 | 1016.5 |
| 20260905135049 | 12 | 329 | 11.3 | 16.1 | 0.00 | 0.03 | 0.00 | 96 | 1016.7 |
| 20260905134045 | 12 | 318 | 11.3 | 17.7 | 0.00 | 0.03 | 0.00 | 96 | 1017.1 |
| 20260905133042 | 12 | 315 | 12.9 | 14.5 | 0.00 | 0.03 | 0.00 | 96 | 1017.1 |
| 20260905132038 | 12 | 315 | 11.3 | 16.1 | 0.00 | 0.03 | 0.00 | 96 | 1017.1 |
| 20260905131036 | 12 | 295 | 9.7 | 14.5 | 0.00 | 0.03 | 0.00 | 95 | 1017.1 |
| 20260905130031 | 12 | 308 | 9.7 | 17.7 | 0.00 | 0.03 | 0.00 | 95 | 1017.1 |
| 20260905125028 | 12 | 315 | 14.5 | 20.9 | 0.00 | 0.03 | 0.00 | 95 | 1017.1 |
| 20260905124026 | 12 | 315 | 11.3 | 17.7 | 0.00 | 0.03 | 0.00 | 95 | 1017.1 |
| 20260905123021 | 12 | 315 | 11.3 | 17.7 | 0.00 | 0.03 | 0.00 | 95 | 1017.0 |
| 20260905122018 | 12 | 306 | 11.3 | 17.7 | 0.00 | 0.03 | 0.00 | 94 | 1017.0 |
| 20260905121114 | 12 | 315 | 16.1 | 24.1 | 0.00 | 0.03 | 0.00 | 94 | 1017.1 |
| 20260905120111 | 12 | 309 | 9.7 | 16.1 | 0.00 | 0.03 | 0.00 | 94 | 1017.2 |
| 20260905115107 | 12 | 308 | 9.7 | 16.1 | 0.00 | 0.03 | 0.03 | 94 | 1017.3 |
| 20260905114124 | 12 | 315 | 12.9 | 17.7 | 0.00 | 0.03 | 0.03 | 94 | 1017.3 |
| 20260905113122 | 12 | 323 | 12.9 | 16.1 | 0.00 | 0.03 | 0.03 | 94 | 1017.4 |
| 20260905112056 | 12 | 318 | 12.9 | 17.7 | 0.00 | 0.03 | 0.03 | 94 | 1017.5 |
| 20260905111054 | 12 | 322 | 11.3 | 17.7 | 0.00 | 0.03 | 0.03 | 94 | 1017.5 |
| 20260905110050 | 12 | 315 | 11.3 | 17.7 | 0.00 | 0.03 | 0.03 | 94 | 1017.7 |
| 20260905105048 | 12 | 325 | 8.0 | 12.9 | 0.00 | 0.03 | 0.03 | 93 | 1017.7 |
| 20260905104103 | 12 | 321 | 9.7 | 12.9 | 0.00 | 0.03 | 0.03 | 93 | 1017.9 |
| 20260905103102 | 12 | 315 | 11.3 | 17.7 | 0.00 | 0.03 | 0.03 | 93 | 1017.9 |
| 20260905102036 | 12 | 318 | 11.3 | 17.7 | 0.00 | 0.03 | 0.03 | 93 | 1017.9 |
| 20260905101032 | 12 | 315 | 14.5 | 17.7 | 0.00 | 0.03 | 0.03 | 93 | 1017.9 |
| 20260905100029 | 12 | 318 | 14.5 | 17.7 | 0.00 | 0.03 | 0.03 | 92 | 1017.9 |
| 20260905095025 | 12 | 321 | 12.9 | 17.7 | 0.00 | 0.03 | 0.03 | 92 | 1017.7 |
| 20260905094045 | 12 | 315 | 12.9 | 17.7 | 0.00 | 0.03 | 0.03 | 92 | 1017.6 |
| 20260905093021 | 12 | 315 | 12.9 | 17.7 | 0.00 | 0.03 | 0.03 | 92 | 1017.6 |
| 20260905092115 | 12 | 319 | 12.9 | 17.7 | 0.00 | 0.03 | 0.03 | 91 | 1017.7 |
| 20260905091132 | 12 | 315 | 12.9 | 16.1 | 0.00 | 0.03 | 0.03 | 91 | 1017.8 |
| 20260905090108 | 12 | 315 | 11.3 | 17.7 | 0.00 | 0.03 | 0.03 | 91 | 1017.9 |
| 20260905085105 | 12 | 315 | 11.3 | 12.9 | 0.00 | 0.03 | 0.03 | 91 | 1017.9 |
| 20260905084104 | -17 | 0.0 | 0.0 | 0.00 | 0.03 | 0.03 | 1017.8 | ||
| 20260905083059 | -17 | 0.0 | 0.0 | 0.00 | 0.03 | 0.03 | 1017.8 | ||
| 20260905082054 | 11 | 19.3 | 20.9 | 0.00 | 0.03 | 0.03 | 86 | 1017.7 | |
| 20260905081113 | 11 | 295 | 16.1 | 20.9 | 0.00 | 0.03 | 0.03 | 86 | 1017.5 |
| 20260905080047 | 11 | 287 | 9.7 | 14.5 | 0.00 | 0.03 | 0.03 | 86 | 1017.4 |
| 20260905075043 | 11 | 315 | 12.9 | 19.3 | 0.00 | 0.03 | 0.03 | 85 | 1017.4 |
| 20260905074040 | 11 | 322 | 12.9 | 17.7 | 0.00 | 0.03 | 0.03 | 85 | 1017.3 |
| 20260905073057 | 11 | 315 | 12.9 | 17.7 | 0.00 | 0.03 | 0.03 | 84 | 1017.3 |
| 20260905072054 | 11 | 315 | 12.9 | 24.1 | 0.00 | 0.03 | 0.03 | 83 | 1017.1 |
| 20260905071051 | 11 | 315 | 12.9 | 17.7 | 0.00 | 0.03 | 0.03 | 82 | 1017.1 |
| 20260905070026 | 11 | 315 | 14.5 | 22.5 | 0.00 | 0.03 | 0.03 | 82 | 1017.1 |
| 20260905065022 | 11 | 315 | 14.5 | 19.3 | 0.00 | 0.03 | 0.03 | 81 | 1017.1 |
| 20260905064019 | 12 | 315 | 12.9 | 20.9 | 0.00 | 0.03 | 0.03 | 81 | 1017.1 |
| 20260905063038 | 12 | 315 | 14.5 | 20.9 | 0.00 | 0.03 | 0.03 | 81 | 1017.1 |
| 20260905062113 | 12 | 315 | 17.7 | 25.7 | 0.00 | 0.03 | 0.03 | 81 | 1017.0 |
| 20260905061108 | 12 | 315 | 17.7 | 25.7 | 0.00 | 0.03 | 0.03 | 81 | 1016.9 |
| 20260905060106 | 12 | 315 | 12.9 | 17.7 | 0.00 | 0.03 | 0.03 | 80 | 1017.0 |
| 20260905055123 | 12 | 315 | 12.9 | 17.7 | 0.00 | 0.03 | 0.03 | 80 | 1016.9 |
| 20260905054121 | 12 | 311 | 14.5 | 22.5 | 0.00 | 0.03 | 0.03 | 80 | 1016.6 |
| 20260905053054 | 12 | 308 | 16.1 | 24.1 | 0.00 | 0.03 | 0.03 | 80 | 1016.7 |
| 20260905052114 | 12 | 323 | 16.1 | 24.1 | 0.00 | 0.03 | 0.03 | 80 | 1016.9 |
| 20260905051048 | 12 | 311 | 17.7 | 24.1 | 0.00 | 0.03 | 0.03 | 78 | 1016.8 |
| 20260905050044 | 12 | 307 | 17.7 | 24.1 | 0.00 | 0.03 | 0.03 | 75 | 1016.8 |
| 20260905045042 | 12 | 310 | 20.9 | 27.4 | 0.00 | 0.03 | 0.03 | 73 | 1017.0 |
| 20260905044037 | 13 | 281 | 20.9 | 33.8 | 0.00 | 0.03 | 0.03 | 75 | 1017.0 |
| 20260905043033 | 13 | 315 | 22.5 | 30.6 | 0.00 | 0.03 | 0.03 | 75 | 1016.9 |
| 20260905042030 | 13 | 315 | 20.9 | 27.4 | 0.00 | 0.03 | 0.03 | 74 | 1017.2 |
| 20260905041027 | 13 | 315 | 20.9 | 32.2 | 0.00 | 0.03 | 0.03 | 72 | 1017.3 |
| 20260905040023 | 13 | 317 | 22.5 | 32.2 | 0.00 | 0.03 | 0.03 | 71 | 1017.5 |
| 20260905035041 | 13 | 315 | 19.3 | 27.4 | 0.00 | 0.03 | 0.03 | 71 | 1017.5 |
| 20260905034038 | 13 | 315 | 22.5 | 27.4 | 0.00 | 0.03 | 0.03 | 72 | 1017.4 |
| 20260905033114 | 13 | 332 | 22.5 | 33.8 | 0.00 | 0.03 | 0.03 | 71 | 1017.5 |
| 20260905032110 | 13 | 318 | 22.5 | 32.2 | 0.00 | 0.03 | 0.03 | 72 | 1017.7 |
| 20260905031105 | 13 | 315 | 22.5 | 27.4 | 0.00 | 0.03 | 0.03 | 73 | 1017.8 |
| 20260905030124 | 13 | 315 | 17.7 | 19.3 | 0.00 | 0.03 | 0.03 | 80 | 1017.7 |
| 20260905025058 | 13 | 315 | 19.3 | 25.7 | 0.03 | 0.03 | 0.03 | 81 | 1017.8 |
| 20260905024055 | 13 | 315 | 16.1 | 27.4 | 0.03 | 0.03 | 0.03 | 83 | 1017.9 |
| 20260905023053 | 12 | 315 | 12.9 | 17.7 | 0.03 | 0.03 | 0.03 | 83 | 1018.0 |
| 20260905022048 | 12 | 303 | 9.7 | 17.7 | 0.03 | 0.03 | 0.03 | 81 | 1017.9 |
| 20260905021044 | 12 | 274 | 6.4 | 14.5 | 0.03 | 0.03 | 0.03 | 78 | 1018.2 |
| 20260905020041 | 12 | 302 | 20.9 | 30.6 | 0.03 | 0.03 | 0.03 | 72 | 1018.3 |
| 20260905015059 | 13 | 320 | 19.3 | 27.4 | 0.00 | 0.00 | 0.00 | 70 | 1018.2 |
| 20260905014057 | 13 | 310 | 20.9 | 30.6 | 0.00 | 0.00 | 0.00 | 69 | 1018.4 |
| 20260905013032 | 13 | 311 | 19.3 | 27.4 | 0.00 | 0.00 | 0.00 | 67 | 1018.3 |
| 20260905012028 | 13 | 309 | 17.7 | 24.1 | 0.00 | 0.00 | 0.00 | 66 | 1018.5 |
| 20260905011024 | 14 | 310 | 17.7 | 24.1 | 0.00 | 0.00 | 0.00 | 68 | 1018.8 |
| 20260905010021 | 13 | 307 | 17.7 | 24.1 | 0.00 | 0.00 | 0.00 | 68 | 1019.1 |
| 20260905005017 | 13 | 306 | 16.1 | 24.1 | 0.00 | 0.00 | 0.00 | 68 | 1019.2 |
| 20260905004115 | 13 | 319 | 20.9 | 29.0 | 0.00 | 0.00 | 0.00 | 68 | 1019.3 |
| 20260905003112 | 14 | 312 | 20.9 | 29.0 | 0.00 | 0.00 | 0.00 | 70 | 1019.5 |
| 20260905002107 | 13 | 295 | 17.7 | 24.1 | 0.00 | 0.00 | 0.00 | 71 | 1019.5 |
| 20260905001104 | 13 | 315 | 19.3 | 33.8 | 0.00 | 0.00 | 0.00 | 71 | 1019.8 |